Regional Weather Roundup
Issued by NWS

Home | Current Version | Previous Version | Text Only | Print | Product List | Glossary On
Versions: 1 2 3 4 5 6 7 8 9 10 11 12 13 14 15 16 17 18 19 20 21 22 23 24 25 26 27 28 29 30 31 32 33 34 35 36 37 38 39 40 41 42 43 44 45 46 47 48 49 50
000
ASUS42 KTBW 161717
RWRFL
FLORIDA REGIONAL WEATHER ROUNDUP
NATIONAL WEATHER SERVICE TAMPA BAY RUSKIN FL
1200 PM EST MON JAN 16 2017

NOTE: "FAIR" INDICATES FEW OR NO CLOUDS BELOW 12,000 FEET WITH NO
SIGNIFICANT WEATHER AND/OR OBSTRUCTIONS TO VISIBILITY.

FLZ001>010-012>015-112-114-115-161800-
PANHANDLE FLORIDA

CITY           SKY/WX    TMP DP  RH WIND       PRES   REMARKS
PENSACOLA      MOSUNNY   73  64  73 SE12      30.24S
PENSACOLA NAS  SUNNY     76  65  68 SE13      30.23S
MILTON NAS       N/A    N/A N/A N/A MISG      30.24S
CRESTVIEW      MOSUNNY   74  58  57 S9        30.27S
DUKE FIELD     FAIR      73  60  62 S14       30.24S
VALPARAISO     MOSUNNY   71  62  71 SE8       30.25S
MARY ESTHER    SUNNY     71  59  66 SE12      30.24S
TRI COUNTY     FAIR      74  60  61 S8        30.26F
PANAMA CITY    FAIR      73  62  68 SE12      30.26S
TYNDALL AFB    SUNNY     75  62  63 SE15      30.26F
APALACHICOLA   CLOUDY    71  63  75 SE12      30.28S

STATION/POSITION SKY/WX   TEMP    WIND        PRES    WAVE   SWELL
                          AIR SEA DIR/SP/G            HT/PER HT/PER
                          (F)     (DEG/KT/KT) (MB)    (FT/S) (FT/S)
30.1N   87.6W              69 65  130/ 10/ 10 1023.4S   4/ 6   3/ 6
28.8N   86.0W              74 75              1023.8F   4/ 6
PANAMA CITY BEAC           66 63  130/ 17/ 19 1024.9F
TOWER C                    67     130/ 15/ 16 1025.8F
28.5N   84.5W              71 72  120/ 16/ 17 1024.7F   3/ 5

$$
FLZ011-016>038-118-127-128-134-139-239-161800-
NORTH FLORIDA

CITY           SKY/WX    TMP DP  RH WIND       PRES   REMARKS
MARIANNA       SUNNY     75  59  57 S9G18     30.27F
TALLAHASSEE    PTSUNNY   76  57  51 S13       30.29F
PERRY          SUNNY     78  53  42 SE6       30.30F
CROSS CITY     MOSUNNY   77  55  47 SE6       30.29F
LAKE CITY      FAIR      73  54  49 S9        30.31F
GAINESVILLE    SUNNY     77  56  48 S10       30.30F
MAYPORT NAS    MOSUNNY   71  63  75 NE8       30.31F
JACKSONVILLE   PTSUNNY   76  58  53 S8        30.30F
JAX NAS        PTSUNNY   74  58  57 VRB3      30.31F
FERNANDINA BEA FAIR      77  63  61 E6        30.30F
ST AUGUSTINE   SUNNY     77  58  51 SE9       30.31F

STATION/POSITION SKY/WX   TEMP    WIND        PRES    WAVE   SWELL
                          AIR SEA DIR/SP/G            HT/PER HT/PER
                          (F)     (DEG/KT/KT) (MB)    (FT/S) (FT/S)
SHELL POINT      NOT AVBL
KEATON BEACH               70     200/ 11/ 13 1025.5F
CEDAR KEY                  64      90/  5/  5 1026.7F
FERNANDINA                 73 62   40/  3/  5 1027.1F
30.7N   81.3W                 62                N/A     2/10   2/11
MAYPORT          NOT AVBL
31.4N   80.9W              62 60   40/  8/  8 1026.6F   2/11   2/11
ST AUGUSTINE               68 63   80/  4/  4 1026.9F

$$
FLZ040-043>046-052-053-057-058-063-144-161800-
INTERIOR CENTRAL FLORIDA

CITY           SKY/WX    TMP DP  RH WIND       PRES   REMARKS
OCALA          MOSUNNY   75  57  53 SE7       30.29F
THE VILLAGES     N/A     79  64  61 MISG      30.19F
LEESBURG       SUNNY     78  56  46 E10       30.30F
SANFORD        SUNNY     78  56  46 E10       30.30F
ORLANDO EXEC   MOSUNNY   77  57  50 E7        30.30F
ORLANDO INTL   MOSUNNY   78  57  48 SE8       30.29F
KISSIMMEE      PTSUNNY   77  59  53 SE7       30.30F
WINTER HAVEN   CLOUDY    76  57  51 E9        30.30F
LAKELAND       CLOUDY    75  61  60 E8        30.30F
BARTOW         PTSUNNY   73  59  60 SE7       30.29F
OKEECHOBEE     CLOUDY    77  59  53 E6        30.27F

$$
FLZ041-047-054-059-064-141-147-161800-
EAST CENTRAL FLORIDA

CITY           SKY/WX    TMP DP  RH WIND       PRES   REMARKS
ORMOND BEACH   MOSUNNY   75  59  57 SE13G23   30.31F
DAYTONA BEACH  MOSUNNY   76  59  55 SE12G17   30.30F
NEW SMYRNA BEA MOSUNNY   75  59  57 E8        30.31F
JFK SPACE CTR  MOSUNNY   77  60  54 VRB6      30.29F
TITUSVILLE     MOSUNNY   75  54  46 SE7       30.31
CAPE CANAVERAL SUNNY     77  58  51 SE9       30.28F
PATRICK AFB    SUNNY     77  62  59 E9        30.28F
MELBOURNE      SUNNY     77  59  53 E14       30.28F
VERO BEACH     SUNNY     78  59  51 E13       30.28F
FT PIERCE      MOSUNNY   78  60  53 SE16      30.27F
STUART         MOSUNNY   81  61  50 E15G21    30.28F

STATION/POSITION SKY/WX   TEMP    WIND        PRES    WAVE   SWELL
                          AIR SEA DIR/SP/G            HT/PER HT/PER
                          (F)     (DEG/KT/KT) (MB)    (FT/S) (FT/S)
TRIDENT PIER               77 67  100/  5/  9 1025.9F
28.4N   80.5W                 69                N/A     3/ 4   2/11
27.5N   80.2W                 74                N/A     4/11   2/11

$$
FLZ050-056-061-142-242-148-248-149-249-151-251-155-255-
160-260-161800-
WEST CENTRAL FLORIDA

CITY           SKY/WX    TMP DP  RH WIND       PRES   REMARKS
CRYSTAL RIVER  FAIR      77  59  53 SE9       30.29F
BROOKSVILLE    PTSUNNY   72  55  56 E17       30.30F
ST PETE CLEARW CLOUDY    73  61  65 E8        30.28F
TAMPA INTL     CLOUDY    75  59  57 E9        30.29F
TAMPA EXEC     CLOUDY    79  59  50 E9        30.29F
PLANT CITY     CLOUDY    77  63  61 E7        30.30F
MACDILL AFB    CLOUDY    75  64  67 SE8       30.27F
PETER O KNIGHT CLOUDY    77  63  61 E7        30.28F
ST PETERSBURG  CLOUDY    69  64  84 E5        30.26F
SARASOTA       CLOUDY    77  60  55 E13       30.25F
VENICE         PTSUNNY   77  63  61 E14G20    30.26F

STATION/POSITION SKY/WX   TEMP    WIND        PRES    WAVE   SWELL
                          AIR SEA DIR/SP/G            HT/PER HT/PER
                          (F)     (DEG/KT/KT) (MB)    (FT/S) (FT/S)
27.3N   84.2W                 77                N/A     5/ 6
CLEARWATER BEACH NOT AVBL
MIDDLE TAMPA BAY           71     120/ 10/ 12 1025.6F
VENICE                     72 65  100/ 10/ 13 1024.8R

$$
FLZ066-069-070-075>078-162-262-165-265-161800-
SOUTHWEST FLORIDA AND KEYS

CITY           SKY/WX    TMP DP  RH WIND       PRES   REMARKS
PUNTA GORDA    CLOUDY    75  61  61 E16       30.27F
FT MYERS       PTSUNNY   77  64  64 E9        30.24F
SOUTHWEST INTL CLOUDY    76  62  62 E13       30.24F
NAPLES         PTSUNNY   78  64  61 E9        30.22F
MARATHON       MOSUNNY   83  65  54 E12G20    30.20F
KEY WEST NAS   SUNNY     81  64  56 E17       30.20F
KEY WEST INTL  MOSUNNY   80  65  59 E13       30.20F

STATION/POSITION SKY/WX   TEMP    WIND        PRES    WAVE   SWELL
                          AIR SEA DIR/SP/G            HT/PER HT/PER
                          (F)     (DEG/KT/KT) (MB)    (FT/S) (FT/S)
NAPLES                        67              1023.6F
26.0N   85.6W              76 76  110/ 17/ 21 1022.4F   5/ 5
DRY TORTUGAS               73      80/ 13/ 14 1022.5F
SAND KEY                   76     130/ 19/ 22 1023.1F
LONG KEY                   74 71  100/ 14/ 16 1023.5R
MOLASSES REEF              76 77  110/ 19/ 20 1023.6R

$$
FLZ067-068-071>074-168-172>174-161800-
SOUTHEAST FLORIDA

CITY           SKY/WX    TMP DP  RH WIND       PRES   REMARKS
W PALM BEACH   PTSUNNY   78  62  57 E20       30.26F
BOCA RATON     PTSUNNY   75  64  69 SE9G21    30.25F
FT LAUDER-EXEC MOSUNNY   80  61  52 SE17G24   30.24F
FT LAUDERDALE  CLOUDY    79  63  57 E15       30.23F
POMPANO BEACH  PTSUNNY   78  62  57 E17       30.24F
PEMBROKE PINES PTSUNNY   78  62  57 E16       30.25F
OPA LOCKA      CLOUDY    78  61  55 E15       30.24F
MIAMI          PTSUNNY   80  61  52 SE12      30.23F
WEST KENDALL   PTSUNNY   81  62  52 E16       30.23F
HOMESTEAD      CLOUDY    77  66  68 E15       30.22F

STATION/POSITION SKY/WX   TEMP    WIND        PRES    WAVE   SWELL
                          AIR SEA DIR/SP/G            HT/PER HT/PER
                          (F)     (DEG/KT/KT) (MB)    (FT/S) (FT/S)
PORT EVERGLADES            76     100/  5/ 11 1024.1F
VIRGINIA KEY               75 78  100/ 12/ 17 1024.1F
LAKE WORTH                 74 76  100/ 17/ 19 1024.3F
FOWEY ROCKS                75 76   90/ 18/ 20 1024.7R

$$




USA.gov is the U.S. government's official web portal to all federal, state and local government web resources and services.